This is the latest recevied weather packets stored in our database for station/object SP5MRF. If no packets are shown the sender has not sent any weather packets the latest 10 day(s).
| Time | Temp. | Humidity | Pressure | Rain* | Wind** | Luminosity | Snow |
|---|---|---|---|---|---|---|---|
| 1788590445 | 16.67° C | 75% | 1006.1 hPa | 0 mm | - | - | - |
| 1788589966 | 16.67° C | 75% | 1006.1 hPa | 0 mm | - | - | - |
| 1788589485 | 16.67° C | 76% | 1006.1 hPa | 0 mm | - | - | - |
| 1788589005 | 16.11° C | 77% | 1006 hPa | 0 mm | - | - | - |
| 1788588525 | 16.11° C | 77% | 1005.8 hPa | 0 mm | - | - | - |
| 1788587565 | 15.56° C | 76% | 1005.8 hPa | 0 mm | - | - | - |
| 1788587085 | 15.56° C | 77% | 1005.7 hPa | 0 mm | - | - | - |
| 1788586605 | 15.56° C | 77% | 1005.5 hPa | 0 mm | - | - | - |
| 1788586125 | 15.56° C | 77% | 1005.7 hPa | 0 mm | - | - | - |
| 1788585645 | 15° C | 77% | 1005.6 hPa | 0 mm | - | - | - |
| 1788585165 | 15.56° C | 76% | 1005.5 hPa | 0 mm | - | - | - |
| 1788584685 | 15.56° C | 76% | 1005.2 hPa | 0 mm | - | - | - |
| 1788584205 | 15.56° C | 76% | 1004.9 hPa | 0 mm | - | - | - |
| 1788583725 | 15.56° C | 77% | 1004.9 hPa | 0 mm | - | - | - |
| 1788583245 | 15.56° C | 77% | 1004.9 hPa | 0 mm | - | - | - |
| 1788582765 | 15.56° C | 77% | 1004.7 hPa | 0 mm | - | - | - |
| 1788582285 | 16.11° C | 77% | 1004.5 hPa | 0 mm | - | - | - |
| 1788581824 | 16.11° C | 78% | 1004.1 hPa | 0 mm | - | - | - |
| 1788581325 | 16.11° C | 79% | 1004.2 hPa | 0 mm | - | - | - |
| 1788580845 | 16.11° C | 81% | 1003.9 hPa | 0 mm | - | - | - |
| 1788580365 | 16.67° C | 81% | 1003.8 hPa | 0 mm | - | - | - |
| 1788579906 | 16.67° C | 82% | 1003.7 hPa | 0 mm | - | - | - |
| 1788579405 | 16.67° C | 82% | 1003.5 hPa | 0 mm | - | - | - |
| 1788578925 | 16.67° C | 82% | 1003.1 hPa | 0 mm | - | - | - |
| 1788578445 | 16.67° C | 82% | 1003 hPa | 0 mm | - | - | - |
* Rain latest hour (hover to see other rain measurements)
** Current wind speed in m/s (hover to see current wind gust speed)